Wind_Speed
27 26 23 18 15 14 15 16 15 13 11 10 11 11 11 11 10 9 9 9 11 14 16 18 18 18 18 18 18 19 21 21 21 21 20 19 19 19 19 18 18 18 17 15 14 13 14 15 16 16 17 18 18 19 20 21 20 19 18 18 17 17 17 17 18 18 19 20 21
27 25 22 18 16 15 16 16 15 12 10 7 7 8 8 7 6 7 7 8 10 12 14 16 17 19 20 19 20 20 21 22 21 20 19 19 19 19 19 19 19 18 16 14 14 14 15 16 16 16 16 17 18 18 19 19 18 18 17 17 18 18 19 19 20 20 20 21 21
27 26 24 20 17 17 17 16 13 8 5 5 6 8 8 5 4 6 8 8 10 13 16 18 19 21 21 22 22 21 21 21 20 19 19 19 20 20 21 21 20 18 15 14 15 16 16 16 15 15 16 18 19 19 19 19 19 18 19 19 20 21 21 21 21 22 22 21 22
26 26 25 23 20 18 18 16 12 8 7 8 11 12 11 8 5 5 6 7 11 16 21 23 23 23 23 23 23 21 20 19 18 18 18 18 19 20 20 19 18 17 17 16 17 17 16 16 15 15 16 18 21 22 22 22 21 21 21 21 22 22 21 21 21 21 21 21 21
24 25 25 23 20 19 18 17 15 12 12 13 16 19 18 15 11 9 9 10 14 19 23 25 24 24 24 24 22 21 19 18 16 15 15 15 16 16 16 15 14 14 15 16 16 16 16 15 15 15 17 20 23 25 25 24 23 22 22 22 22 21 20 20 20 20 20 20 20
22 22 22 20 18 18 18 19 17 15 15 15 17 20 22 21 17 15 15 17 19 22 23 23 23 22 22 21 20 19 18 17 16 14 13 13 13 12 11 11 10 11 13 15 16 16 16 15 15 17 20 24 27 27 26 24 22 21 21 21 21 20 20 19 20 20 20 19 19
22 21 20 19 18 17 18 20 19 17 16 15 17 20 22 22 20 19 20 21 22 21 20 19 19 19 19 18 17 16 16 17 16 15 13 11 10 10 9 9 10 12 14 17 18 18 17 17 19 22 26 28 28 26 24 22 20 20 19 20 20 20 20 19 19 19 18 17 17
22 22 21 20 20 20 20 22 20 17 17 18 20 22 22 23 22 21 20 19 18 17 17 17 17 17 17 16 15 14 14 15 15 14 13 11 10 10 9 10 11 14 17 19 19 19 19 19 22 25 26 26 24 22 21 19 19 18 18 19 19 19 18 17 17 16 16 15 15
23 22 22 22 22 22 23 23 21 20 21 21 22 24 25 26 25 23 20 17 16 15 15 16 17 17 17 16 14 13 13 13 13 13 12 12 12 12 12 12 14 16 19 20 20 20 20 21 22 22 21 20 18 17 17 17 16 16 16 16 15 15 15 15 14 14 14 14 14
22 23 23 23 23 23 23 24 24 23 23 22 23 25 28 29 28 24 21 18 17 16 15 16 17 17 17 16 14 13 14 14 13 12 13 14 14 14 14 14 15 17 19 20 21 21 21 21 18 16 15 14 14 14 14 15 14 13 13 13 12 11 11 11 11 11 11 11 12
21 22 23 24 24 24 24 24 24 23 22 22 23 26 29 31 28 24 20 19 18 18 18 18 18 17 17 16 15 15 14 14 13 13 14 14 14 14 14 15 16 17 18 20 21 22 21 19 15 13 11 11 11 11 11 11 11 10 10 10 10 10 10 10 10 10 10 11 11
19 21 22 22 24 25 26 25 22 20 18 19 22 25 27 28 26 22 20 19 19 20 20 19 18 18 17 17 16 16 15 14 14 14 14 14 13 13 14 14 15 17 18 20 22 22 19 16 13 11 9 9 9 8 7 7 7 8 8 9 9 10 10 10 10 11 11 11 11
18 19 20 21 22 24 25 25 22 19 18 19 20 21 22 22 22 22 21 21 21 22 22 21 20 19 19 18 17 16 15 15 14 15 15 16 15 15 15 16 16 18 20 21 21 18 14 11 10 8 7 6 6 5 4 5 6 6 7 8 9 9 10 10 11 11 11 11 11
17 18 19 20 21 23 24 24 22 20 20 21 22 22 22 22 23 23 23 23 25 25 24 23 21 20 19 18 18 17 17 17 18 18 19 19 19 19 19 19 20 20 19 18 15 12 9 8 7 6 5 4 4 3 3 4 5 6 6 7 7 8 9 9 9 9 9 9 10
15 16 17 18 20 21 23 23 22 22 23 24 24 25 26 27 27 25 24 25 25 25 24 23 22 21 21 21 21 21 21 21 21 21 21 21 20 20 19 18 18 16 14 12 11 9 8 6 5 5 5 5 4 4 5 5 6 6 6 5 6 6 7 7 7 7 7 7 8
14 15 16 17 19 21 22 23 23 24 25 26 27 28 29 29 28 27 25 25 25 25 25 24 24 23 23 24 24 23 22 22 22 21 20 19 18 17 15 14 12 11 10 10 9 8 8 7 6 6 6 6 6 6 6 7 7 8 8 8 8 8 7 7 7 7 7 7 8
13 15 16 17 19 20 22 23 24 25 26 27 28 29 29 29 28 27 27 26 26 25 25 25 25 24 24 23 22 21 20 19 18 17 16 15 14 12 11 10 9 9 9 8 8 7 7 7 7 7 7 7 7 8 8 9 9 10 11 11 12 12 11 11 10 10 9 8 8
14 16 17 18 19 21 22 24 25 26 27 28 28 28 28 28 28 27 26 25 24 23 23 22 22 21 20 19 19 18 17 15 13 13 12 12 11 10 9 9 8 7 7 6 6 6 6 6 7 7 7 7 8 8 9 10 11 11 12 12 13 13 14 14 14 13 12 11 10
16 17 18 19 21 22 23 24 25 26 26 27 27 26 26 26 25 25 24 22 20 19 18 18 17 17 16 16 16 15 14 12 11 11 11 10 9 9 8 8 7 5 5 5 6 7 7 6 6 7 7 8 9 10 11 11 11 11 11 11 12 13 13 14 14 15 14 13 12
17 19 20 21 22 23 24 24 24 24 24 24 24 24 23 23 23 22 20 18 16 15 14 15 15 15 15 15 14 13 12 11 10 10 10 9 8 8 8 7 6 5 5 5 6 6 7 7 8 8 9 10 10 11 11 12 11 11 12 12 13 13 13 13 12 12 11 11 11
19 20 21 22 23 24 24 24 23 22 22 22 21 21 21 21 20 18 17 16 14 14 13 13 13 13 13 13 13 12 11 11 10 10 9 8 8 7 7 6 5 5 5 6 6 7 8 8 9 10 10 10 10 11 12 13 13 13 14 14 15 14 13 11 9 8 8 8 9
19 21 22 23 23 23 23 22 21 20 20 20 20 20 19 19 17 16 15 14 13 13 13 12 12 12 11 11 11 10 10 10 10 9 8 7 7 6 6 5 5 6 6 7 7 8 8 9 9 10 10 10 11 12 13 14 14 15 15 15 15 14 12 9 7 7 7 8 9
19 21 22 22 22 22 21 20 19 19 18 19 19 18 18 17 16 15 14 14 13 13 13 12 11 10 10 9 9 9 9 9 9 8 7 7 6 6 6 6 6 7 7 8 9 9 9 9 10 10 11 12 12 13 14 15 15 15 15 15 14 13 10 7 6 7 8 9 10
19 20 21 21 21 20 19 18 18 18 18 18 18 18 17 16 16 15 14 14 13 13 12 12 11 10 10 9 8 8 7 7 8 7 6 6 7 7 7 7 7 7 8 9 10 11 11 12 12 13 13 14 14 15 15 15 15 15 15 14 13 11 9 8 7 8 9 9 9
19 19 20 20 19 19 18 17 17 17 18 18 18 17 17 16 15 15 14 14 13 13 12 11 11 10 10 9 8 7 7 7 7 7 7 6 7 7 7 7 7 8 9 10 10 12 13 14 15 15 16 15 15 15 15 15 15 14 14 13 11 9 9 9 9 9 9 10 9
18 18 19 19 18 18 17 17 17 17 18 18 17 17 16 16 15 15 14 14 13 12 11 10 10 9 9 9 8 8 8 8 7 7 7 7 7 7 7 7 7 8 10 11 12 13 14 14 15 16 16 16 16 15 15 14 14 13 12 11 10 9 9 9 10 10 10 10 10
17 18 18 18 17 17 17 17 17 18 18 18 18 17 17 16 15 14 14 13 12 11 10 9 9 9 8 8 8 9 9 9 8 8 8 7 8 8 8 9 10 11 12 13 14 14 13 13 13 13 14 14 15 14 14 13 12 12 11 10 10 10 10 11 11 11 11 11 10
17 17 18 18 17 17 17 18 18 18 18 18 18 17 16 16 15 14 13 12 11 10 10 10 10 9 9 9 9 9 9 8 8 8 8 8 9 9 10 10 11 12 12 13 13 12 11 10 10 10 11 12 13 13 12 11 11 11 11 11 11 11 12 12 12 12 12 12 11
17 18 18 18 18 18 18 18 18 19 18 18 17 17 16 15 15 14 13 12 11 11 11 11 11 11 10 10 9 8 8 8 8 8 8 9 9 9 10 10 10 9 9 8 8 8 8 7 7 7 8 10 12 12 12 11 10 10 11 11 12 12 13 13 14 13 13 12 12
18 18 19 19 19 19 19 19 19 19 18 18 17 17 16 15 14 13 13 12 11 11 11 11 11 11 11 10 9 8 8 8 7 8 8 8 8 8 8 8 7 6 5 5 5 5 6 6 7 7 7 8 11 12 12 11 10 11 11 12 12 13 14 14 14 14 14 13 12
19 19 19 20 20 20 20 19 19 19 18 18 17 16 16 15 14 14 13 12 11 11 11 11 11 11 10 9 8 8 7 7 7 7 7 7 7 7 7 6 5 5 4 5 5 5 6 6 7 7 7 8 10 12 13 12 11 11 12 12 13 13 14 14 14 14 14 13 12
19 20 20 20 20 20 20 20 19 19 18 18 17 16 16 15 14 14 13 12 12 11 11 11 11 10 9 9 8 8 7 7 7 7 7 7 6 6 6 6 6 5 5 6 6 6 6 7 7 8 8 8 11 12 13 12 11 12 12 13 13 14 14 14 14 14 13 12 11
20 20 20 21 21 21 21 20 20 19 18 18 17 17 16 16 15 14 14 13 13 12 12 11 10 9 9 8 8 8 8 7 7 7 7 6 6 7 7 7 6 6 6 6 6 7 7 7 8 8 8 9 11 12 13 12 12 12 12 12 13 13 13 13 13 12 12 11 10
20 21 21 21 21 21 21 21 20 20 19 18 18 17 17 16 16 16 15 14 13 12 11 10 9 8 8 7 7 7 7 7 7 7 6 7 7 8 8 8 7 6 6 6 7 7 7 8 8 8 8 9 12 13 12 12 12 12 12 12 12 12 12 12 11 11 10 10 10
21 21 21 21 22 22 21 21 21 20 20 20 19 19 18 17 17 16 16 15 13 12 11 10 9 8 7 7 7 8 8 7 7 7 7 7 8 9 9 8 7 6 6 6 7 7 8 8 8 8 8 11 12 13 12 12 12 11 11 11 11 11 11 11 10 9 9 9 9
22 22 22 22 22 22 22 22 21 21 21 21 20 20 19 18 17 16 15 14 13 12 11 10 9 9 9 9 9 9 9 8 7 7 7 8 8 9 9 8 7 6 5 6 7 7 8 8 8 8 9 11 13 13 12 12 11 11 11 10 11 10 10 9 8 8 8 9 9
22 22 22 22 22 23 23 23 22 22 22 22 21 21 20 19 18 17 16 14 14 13 12 11 10 10 10 10 9 9 9 8 8 7 7 8 8 9 9 8 6 5 5 5 6 7 8 8 7 8 11 13 13 13 12 12 11 10 10 10 10 9 9 8 8 8 8 9 9
23 22 22 22 23 23 23 23 23 23 23 23 22 21 20 19 18 17 16 15 14 13 13 12 11 10 10 9 8 8 8 7 7 7 7 8 8 8 8 7 6 5 4 5 6 7 7 7 7 9 12 13 13 12 12 11 11 10 9 9 9 8 8 8 8 8 8 9 9
23 23 23 23 23 23 24 24 24 24 24 23 22 22 21 20 19 17 16 15 14 14 13 12 11 10 8 7 7 7 7 7 7 7 7 8 7 7 7 7 6 5 4 5 6 6 7 7 8 10 12 12 12 12 11 11 10 9 9 9 9 9 9 9 9 9 9 9 10
23 23 23 23 23 23 24 24 24 24 23 23 23 22 21 20 18 17 16 15 14 14 13 11 10 8 6 6 6 6 6 7 7 7 8 8 8 7 7 7 6 5 4 4 5 6 6 7 9 11 12 12 11 11 10 9 9 8 9 9 9 10 10 10 10 10 10 10 11
23 23 23 23 23 24 24 24 24 24 23 23 22 22 20 19 17 16 16 15 14 13 12 10 8 7 7 7 7 7 7 7 6 7 7 8 8 8 8 7 7 6 5 4 5 5 5 7 9 11 11 11 11 10 9 9 8 9 9 10 10 11 12 12 12 11 11 11 12
Wind_Direction
222 220 220 223 226 235 244 252 259 266 275 283 280 284 292 297 297 295 291 285 280 277 276 274 270 267 266 267 263 255 247 240 237 234 232 233 235 237 235 231 228 228 228 232 238 245 249 248 246 245 245 244 243 240 238 238 239 241 244 246 248 250 251 252 254 254 254 253 253
223 222 223 228 234 241 249 256 264 270 276 282 275 268 268 279 294 300 294 283 275 272 272 270 263 257 256 263 265 259 251 244 239 235 232 230 231 232 232 230 230 231 233 237 242 245 246 248 248 250 253 253 251 248 244 242 242 244 247 251 253 254 255 254 254 254 253 252 252
229 228 229 233 239 245 252 257 261 263 259 247 231 228 231 240 280 293 289 287 276 270 266 261 256 255 259 265 265 259 249 240 236 233 229 227 226 226 227 228 230 234 238 239 239 239 241 246 252 258 262 264 263 259 256 253 253 254 255 257 258 258 258 256 255 255 254 253 252
229 229 230 233 239 246 251 253 249 241 234 236 238 234 231 236 266 293 293 281 265 259 257 255 253 254 256 259 258 252 243 235 231 227 223 221 221 221 222 226 231 234 235 234 234 237 241 248 256 262 266 267 266 265 263 261 261 261 261 262 262 262 261 261 260 259 258 257 257
224 225 227 230 237 245 250 252 249 246 245 248 252 250 245 241 248 262 265 253 244 244 248 252 252 251 250 249 247 243 237 233 230 225 218 213 214 218 223 228 231 229 227 228 234 240 247 253 258 263 265 265 264 263 262 262 262 263 264 265 266 266 266 265 265 265 264 263 262
220 222 225 230 235 240 246 250 249 248 249 253 256 255 251 242 236 232 228 223 224 230 239 246 247 244 239 237 234 231 229 228 228 225 218 213 216 221 225 229 232 235 239 243 247 250 253 256 259 260 261 261 260 259 259 260 262 264 266 267 268 268 268 267 267 267 267 266 266
226 228 232 238 237 231 231 241 243 245 250 254 255 254 249 238 227 217 211 211 219 229 239 243 239 232 227 223 220 219 219 219 222 224 224 223 227 232 238 243 250 257 262 263 262 260 258 257 259 259 258 256 255 255 256 259 262 265 266 266 267 268 267 266 265 264 264 263 262
238 239 242 245 243 235 229 233 238 248 255 255 252 246 238 230 221 215 216 221 231 240 244 241 233 226 221 218 217 217 217 216 219 224 231 239 249 254 256 259 265 271 273 274 272 269 265 262 259 256 253 251 251 252 254 259 262 263 262 262 264 264 264 263 262 261 261 259 256
247 246 245 244 243 237 233 233 239 248 252 248 244 238 230 223 216 215 222 238 251 254 250 241 233 228 225 223 225 229 231 230 229 233 242 251 261 265 266 266 269 274 278 279 278 275 271 266 259 253 249 248 248 251 255 258 260 260 260 260 261 262 262 262 264 266 266 263 257
249 248 245 242 240 236 234 234 239 243 243 239 234 229 223 217 212 213 224 242 257 262 257 247 238 233 229 227 231 239 246 247 246 245 247 249 254 261 267 271 273 276 280 282 280 277 272 265 255 247 245 248 250 253 255 256 256 256 256 258 261 263 265 266 271 275 276 275 270
246 247 245 242 239 237 235 236 238 238 236 232 226 221 216 212 210 214 224 238 252 260 259 253 244 237 232 229 230 238 246 248 247 245 245 247 253 260 267 271 273 275 277 278 276 273 267 257 246 241 244 249 253 255 256 256 256 255 255 258 260 263 267 270 275 278 280 280 278
242 245 246 242 237 234 234 234 234 234 233 230 226 221 216 213 215 219 226 233 243 249 250 248 242 236 232 229 229 232 236 238 241 244 248 254 259 264 267 269 270 271 270 269 266 262 256 246 243 243 248 254 256 257 260 263 264 264 264 264 265 267 270 272 275 276 277 276 275
236 240 241 238 232 228 226 225 226 233 241 242 236 228 223 224 227 230 231 232 234 236 236 236 235 233 230 228 228 231 234 237 244 252 259 262 264 265 266 267 268 267 264 260 255 248 241 241 245 250 255 258 259 261 265 268 266 264 262 262 263 265 267 269 271 273 273 273 272
231 233 233 231 226 221 218 218 220 227 235 240 238 233 229 229 231 233 234 231 229 227 226 226 226 227 227 228 234 240 245 249 255 259 262 263 262 262 261 262 261 259 255 250 242 233 228 235 243 249 250 246 245 249 255 259 257 254 252 253 256 259 261 264 267 269 271 272 272
229 229 228 225 220 216 215 215 217 219 222 226 228 228 225 223 224 226 228 227 225 222 219 218 220 223 228 235 242 246 250 254 257 258 258 258 257 254 250 248 247 244 238 231 224 218 214 218 225 231 232 230 231 239 247 252 253 255 258 259 262 263 265 268 272 276 278 277 275
230 229 226 222 218 216 215 215 217 217 218 219 221 220 219 216 216 216 217 218 218 217 217 219 222 228 235 241 244 245 247 250 251 250 248 247 244 238 233 227 223 219 216 215 216 214 212 209 213 219 225 230 232 237 244 250 253 259 265 270 273 274 274 276 279 283 285 283 280
232 229 226 222 218 216 215 215 216 216 216 215 214 213 212 210 209 207 207 208 211 213 216 221 226 231 235 236 236 235 235 237 236 233 230 226 222 216 210 205 204 206 209 212 215 218 220 220 225 231 237 242 244 246 249 253 256 258 261 264 266 268 269 269 270 274 279 282 283
229 227 223 218 215 212 211 211 211 210 209 208 207 207 207 206 205 203 202 205 208 212 215 218 222 224 223 220 219 219 220 219 216 210 204 201 199 196 194 193 199 205 207 206 211 218 227 235 244 253 261 267 267 266 265 265 266 265 265 265 266 266 265 264 263 263 266 271 276
225 221 216 211 209 207 206 205 205 204 203 203 203 204 204 204 203 202 202 204 208 210 211 209 208 207 205 203 203 205 206 204 198 191 187 184 184 185 186 189 198 203 204 204 213 221 230 239 249 259 267 271 274 276 277 277 278 279 280 280 279 278 275 272 267 263 261 260 263
221 215 210 207 205 203 203 203 203 203 203 203 204 203 203 202 203 203 203 203 204 205 204 202 199 196 196 197 198 197 194 191 187 182 178 177 178 181 184 188 196 204 211 217 224 232 239 246 253 258 263 268 274 280 283 286 288 290 291 290 290 291 289 286 279 271 263 256 256
216 211 207 205 204 204 204 205 207 207 207 206 204 202 201 200 201 202 202 201 200 199 199 201 201 199 198 198 196 191 186 182 179 178 177 176 178 181 186 193 201 212 222 230 236 243 249 254 259 264 269 274 279 284 287 290 293 295 295 295 295 296 295 292 287 280 270 261 258
212 208 206 205 205 205 207 208 209 209 207 204 202 199 198 197 197 197 198 198 198 197 198 200 202 202 200 197 192 187 181 178 177 178 179 179 181 186 195 205 215 225 234 241 245 248 252 257 263 270 276 282 286 288 290 291 294 296 298 299 299 299 297 292 286 281 275 268 263
209 207 205 205 206 207 208 209 208 206 203 199 197 195 194 193 192 193 193 195 196 196 196 197 197 196 194 191 187 184 181 180 179 180 183 186 190 197 207 220 230 240 245 249 252 254 257 263 269 276 282 287 290 292 293 294 296 298 301 302 302 300 297 292 283 276 272 268 265
208 206 206 206 206 207 208 208 206 203 199 196 194 193 192 191 191 192 192 194 194 195 194 192 189 186 183 181 181 184 187 188 186 188 191 198 204 212 221 229 237 244 251 256 261 265 269 274 279 283 287 290 292 294 295 296 297 299 301 302 300 297 293 286 278 272 271 270 268
209 208 208 208 208 209 209 208 205 201 198 195 194 193 193 192 193 193 193 193 194 194 191 188 184 180 176 175 177 184 193 200 200 202 206 213 219 227 235 242 247 253 259 265 272 279 284 288 290 291 292 293 294 294 295 296 297 299 299 298 295 290 284 278 273 271 271 272 271
213 211 211 211 211 210 209 207 204 202 199 197 196 195 194 194 194 194 193 193 194 192 189 184 182 178 176 178 182 189 196 203 208 213 219 228 237 244 250 256 260 266 272 277 282 288 293 296 297 296 295 293 293 293 293 294 296 297 295 292 286 279 274 272 270 271 272 274 273
217 215 214 214 213 211 209 207 205 203 201 200 198 197 196 195 195 194 193 192 192 189 185 182 181 180 181 186 193 198 202 206 211 219 229 239 248 255 259 263 267 272 277 281 285 289 292 293 293 292 291 291 290 290 290 292 293 292 290 285 279 273 270 268 268 270 272 274 275
221 220 218 216 213 211 210 208 206 204 204 203 201 199 198 196 194 193 192 192 190 187 184 183 183 185 189 195 201 206 211 215 219 226 235 245 253 259 264 269 273 276 280 284 287 289 290 288 286 282 281 283 284 285 286 289 290 289 286 282 277 273 271 268 267 267 269 271 274
224 222 220 217 214 212 211 209 208 207 206 205 203 201 199 197 196 194 193 192 190 188 187 187 189 193 198 203 208 214 221 226 231 237 243 250 256 262 268 275 280 284 287 289 289 291 290 289 285 279 274 274 276 278 280 284 286 287 285 282 279 276 273 269 267 266 267 268 270
225 222 220 218 216 214 212 211 210 209 208 207 205 203 201 199 197 196 195 194 193 192 192 193 196 201 205 210 217 223 229 235 241 246 251 255 260 266 273 280 286 291 293 290 286 287 289 289 286 280 273 270 272 273 275 278 283 286 286 283 281 278 275 272 269 267 267 268 268
224 222 220 219 216 215 213 212 212 210 209 208 206 205 203 201 200 199 198 198 198 197 198 200 204 208 214 220 227 232 237 243 248 253 256 260 264 270 276 281 287 291 289 282 276 277 281 283 282 274 267 268 271 272 271 273 278 282 284 284 282 280 277 274 272 270 269 268 266
224 222 220 218 216 215 213 212 211 210 209 208 207 206 205 203 202 202 202 202 203 203 204 207 211 216 221 227 234 240 245 250 253 257 259 263 266 270 275 279 284 287 284 277 271 269 272 275 275 266 260 268 272 272 270 269 272 276 280 282 282 281 279 276 273 271 268 264 260
223 221 219 217 216 214 213 211 210 209 208 208 208 207 206 205 204 203 204 205 207 209 211 214 218 223 228 234 240 245 250 253 256 258 260 262 266 271 275 279 283 284 280 273 268 265 266 268 267 260 259 271 273 270 267 265 266 271 276 280 282 282 280 277 273 269 263 256 251
222 220 218 217 215 214 212 211 210 208 207 207 207 208 207 206 205 204 205 207 210 213 217 222 227 232 238 244 248 251 252 253 254 254 257 261 267 272 276 279 282 281 277 270 266 263 263 264 262 261 266 273 271 266 262 260 263 267 274 279 282 282 280 276 270 262 253 245 239
222 219 217 216 215 214 212 210 209 208 207 207 207 208 208 208 208 208 208 210 212 215 219 223 227 232 236 242 247 249 249 248 248 250 254 261 268 273 276 279 280 278 273 268 265 264 264 262 259 263 270 271 267 262 259 257 260 266 273 279 281 280 277 271 263 252 241 234 231
222 220 217 216 214 214 213 211 210 208 208 208 208 208 208 209 210 211 212 213 215 217 220 222 225 228 232 237 243 246 246 243 243 246 252 260 267 273 277 280 279 275 269 266 265 266 264 261 259 265 268 264 261 258 255 255 259 266 274 279 279 277 271 263 251 238 229 226 224
224 221 218 216 215 214 214 213 211 210 210 210 210 210 210 210 210 211 213 215 217 219 221 224 226 230 235 242 247 250 250 246 242 243 249 259 267 274 280 283 281 274 267 266 268 269 265 259 260 263 262 259 256 252 250 252 257 265 272 275 274 270 262 250 237 226 221 220 219
225 222 220 217 216 216 215 214 213 213 213 213 212 212 212 212 211 212 214 216 219 222 224 227 230 235 243 253 259 260 255 247 242 243 249 258 267 275 282 284 281 273 266 267 269 268 264 258 262 257 252 253 250 247 247 249 256 263 268 269 265 257 247 234 223 217 215 215 213
225 223 221 219 218 218 217 216 216 216 216 215 213 213 213 213 213 214 216 219 222 226 230 233 237 243 249 256 260 259 252 244 240 243 249 255 262 269 274 276 273 267 263 265 266 264 262 261 256 251 248 247 244 243 244 248 255 260 262 260 253 242 231 222 215 211 209 208 207
226 224 222 221 220 219 219 218 218 218 218 216 215 214 214 214 215 216 219 222 225 230 235 241 248 253 255 256 257 255 250 245 243 245 250 254 255 257 260 261 260 258 257 261 262 262 260 254 240 238 240 240 239 239 242 248 253 255 253 248 240 230 221 215 211 207 204 203 202
226 224 222 221 221 221 221 220 220 219 219 218 217 217 217 217 218 219 221 225 228 233 239 248 256 262 264 265 265 262 256 249 247 250 254 255 251 247 245 245 246 248 251 256 258 261 254 237 228 229 232 233 234 237 243 249 251 249 244 239 233 225 217 212 209 206 202 200 199
Height
781 781 782 782 784 786 789 791 792 792 792 792 794 795 796 796 795 794 794 794 795 796 797 799 801 802 802 802 802 802 802 802 801 802 802 803 805 806 808 808 809 809 809 810 811 812 814 815 815 816 816 816 815 814 814 814 814 815 815 815 815 815 816 816 816 816 817 817 817
778 779 780 782 784 786 789 791 791 791 792 793 794 796 796 795 795 795 794 794 795 795 796 798 800 801 802 801 801 801 801 801 800 800 800 801 802 804 806 807 807 807 808 809 811 812 813 814 815 816 817 816 815 814 814 813 813 813 814 814 814 814 814 815 815 815 815 816 816
777 777 779 781 784 786 788 790 791 790 790 792 793 794 794 794 795 795 795 795 795 796 797 798 799 800 800 801 801 800 800 799 798 798 799 800 801 802 804 805 806 807 808 809 811 812 812 813 815 816 816 816 816 815 814 813 813 813 813 813 813 813 813 813 813 813 814 814 814
776 776 778 781 783 785 787 789 790 789 789 791 793 794 793 792 793 794 795 796 796 797 798 798 799 799 800 800 800 800 799 799 798 798 798 799 800 801 803 804 806 806 808 810 810 811 811 812 813 814 815 815 815 814 813 813 812 811 811 811 811 811 811 811 811 812 812 812 812
775 776 777 779 781 784 786 787 788 787 788 791 792 793 792 791 790 791 793 795 796 797 798 798 799 799 800 800 799 799 799 800 800 800 799 800 801 802 803 804 805 806 807 808 809 810 810 811 811 812 813 815 814 813 812 811 811 810 809 809 809 809 810 810 810 810 810 811 811
774 775 776 778 780 782 785 786 787 787 787 787 789 790 791 791 789 789 790 792 794 795 796 797 798 799 799 799 799 798 799 800 801 802 801 801 801 802 803 804 804 805 806 807 808 809 809 810 811 811 812 813 813 812 810 809 808 808 807 807 807 807 808 808 808 809 809 809 809
773 774 776 777 779 780 782 785 786 786 786 785 786 788 790 791 791 790 789 789 791 793 795 796 797 798 798 798 798 798 798 799 801 802 802 801 801 802 802 803 803 804 805 806 807 807 808 809 810 811 811 811 811 810 808 807 806 806 806 806 806 806 806 807 807 807 807 808 808
772 773 775 777 778 779 781 783 785 786 786 786 786 788 789 791 791 791 790 790 791 792 793 795 796 796 797 797 797 797 797 798 799 800 800 801 801 802 801 801 802 804 805 806 806 806 806 807 808 809 809 809 809 808 806 806 805 804 804 805 805 805 805 806 806 806 806 807 807
771 771 773 775 777 779 780 781 784 786 786 786 786 787 788 789 789 789 790 790 791 791 792 794 795 796 796 796 796 796 796 796 797 798 799 800 801 801 801 801 802 804 806 807 807 807 806 806 807 807 807 807 807 806 804 804 803 803 803 804 804 804 804 805 805 805 806 806 806
769 770 771 774 776 778 779 780 781 782 783 784 784 785 786 787 787 788 788 789 790 791 791 793 794 795 795 794 795 796 796 796 796 797 799 801 801 801 801 802 803 805 806 807 808 807 807 806 806 806 806 806 805 803 802 802 802 802 802 803 803 803 804 804 804 805 805 805 805
767 768 770 772 774 776 777 778 779 779 780 781 782 784 785 786 786 786 787 788 789 790 791 792 793 794 794 793 793 795 796 797 797 799 800 801 800 800 801 802 803 804 806 807 809 809 808 807 806 805 805 804 803 801 801 801 801 802 802 802 803 803 803 803 804 804 804 804 804
765 766 768 770 772 774 775 776 777 778 779 781 782 784 785 786 786 786 787 788 789 790 791 793 793 794 794 793 793 794 796 797 798 799 799 799 799 799 800 801 801 802 804 806 808 809 808 806 804 803 802 801 801 801 801 801 801 801 801 802 802 802 802 803 803 803 804 804 804
763 765 766 767 769 771 772 774 775 776 779 781 783 784 785 786 787 788 788 789 790 791 791 792 793 793 793 792 792 793 794 796 797 798 799 799 799 799 799 799 800 801 802 803 804 805 804 803 801 801 801 801 801 801 801 801 801 801 801 801 802 802 802 802 803 803 803 803 803
762 763 764 766 767 769 770 771 772 774 777 780 781 781 782 784 786 787 787 788 788 789 789 790 791 791 791 791 792 793 794 795 796 797 798 798 798 798 798 798 798 799 801 801 802 802 802 801 800 800 800 800 800 800 800 801 801 801 801 801 801 801 802 802 802 802 802 802 802
761 762 764 765 766 767 769 770 770 771 773 775 776 778 779 780 782 783 784 785 786 786 787 788 789 789 790 791 791 792 793 794 795 796 796 796 796 796 797 797 798 799 800 801 801 801 800 800 799 799 800 800 800 800 800 800 800 801 801 801 801 801 801 801 801 801 801 801 801
761 762 763 765 766 767 768 769 769 770 771 772 774 775 776 778 779 781 781 783 784 785 786 787 787 788 789 790 790 791 791 792 794 795 795 795 795 796 796 797 798 799 800 800 800 799 799 799 799 799 799 799 799 799 800 800 800 800 800 800 800 800 800 800 800 800 800 800 800
761 762 763 764 765 766 767 768 769 770 771 772 773 774 776 777 779 780 781 781 783 784 785 786 787 788 788 789 789 790 791 791 792 793 794 794 795 795 796 796 797 798 798 799 798 798 798 798 798 798 798 798 798 799 799 799 799 799 799 799 799 799 799 799 800 800 800 800 800
761 762 763 764 765 766 767 768 769 770 771 772 773 774 776 777 778 779 780 781 782 784 785 786 786 787 788 788 789 789 790 791 791 792 793 794 794 795 796 796 797 797 797 797 797 797 797 797 797 797 797 798 798 798 798 798 798 798 798 798 798 798 798 798 798 799 799 799 799
761 762 763 764 765 766 767 768 769 770 771 772 773 775 776 777 778 779 781 781 783 784 784 785 786 786 787 788 788 789 789 790 791 791 792 793 794 794 795 796 796 796 796 796 797 797 797 797 797 797 797 797 797 797 797 797 796 796 796 797 797 797 797 797 797 797 797 798 798
761 762 763 764 766 767 768 769 770 771 772 773 774 775 776 777 778 779 780 781 782 783 784 784 785 786 786 787 787 788 789 789 790 791 791 792 793 794 794 795 795 795 796 796 796 796 796 796 796 796 796 796 796 796 796 796 796 796 796 796 796 796 796 796 796 796 796 797 797
761 762 763 765 766 767 768 769 770 771 772 773 774 775 776 776 778 778 779 780 781 782 783 784 784 785 785 786 786 787 788 788 789 790 791 791 792 793 793 794 794 794 794 795 795 795 795 795 795 795 795 795 795 795 795 795 795 795 795 795 795 795 795 795 795 795 795 796 796
761 763 764 765 766 767 768 769 770 771 772 773 774 775 776 776 777 778 779 780 781 781 782 783 783 784 784 785 785 786 787 787 788 789 790 791 791 792 792 793 793 793 793 794 794 794 794 794 794 794 794 794 794 794 794 794 794 794 794 794 794 794 794 794 794 794 795 795 795
762 763 764 765 766 767 768 769 770 771 772 773 774 774 775 776 776 777 778 779 780 780 781 782 782 783 783 784 785 785 786 787 787 788 789 790 790 791 791 791 792 792 792 792 792 793 793 793 793 793 793 793 793 793 793 793 793 793 793 793 793 793 793 793 794 794 794 794 794
762 763 764 765 766 767 767 768 769 770 771 772 773 774 774 775 776 776 777 778 779 779 780 781 781 782 782 783 784 784 785 786 787 787 788 789 789 790 790 790 791 791 791 791 791 791 792 792 792 792 792 792 792 792 792 792 792 792 793 793 793 793 793 793 793 793 793 793 793
762 763 764 765 766 766 767 768 769 770 771 772 772 773 774 774 775 776 776 777 778 779 779 780 781 781 781 782 783 784 785 786 786 787 787 788 788 788 789 789 789 790 790 790 790 791 791 791 791 791 791 791 791 791 791 792 792 792 792 792 792 792 792 792 792 792 793 793 793
762 763 764 765 765 766 767 767 768 769 770 771 772 772 773 773 774 775 776 776 777 778 778 779 780 780 781 781 782 783 784 785 786 786 786 787 787 787 788 788 789 789 789 789 790 790 790 790 790 790 790 790 790 791 791 791 791 791 791 791 791 791 791 791 792 792 792 792 792
762 763 764 764 765 766 766 767 768 769 770 770 771 772 772 773 774 774 775 776 776 777 777 778 779 780 781 781 782 783 784 785 785 786 786 786 786 786 787 787 788 788 788 789 789 789 789 789 790 789 789 789 789 789 790 790 790 790 791 791 791 791 791 791 791 791 791 792 792
762 763 763 764 765 766 766 767 768 768 769 770 771 771 772 772 773 774 774 775 776 776 777 778 779 780 781 781 782 783 783 784 784 784 785 785 785 786 786 786 787 787 787 788 788 788 788 788 789 789 789 789 788 788 789 789 790 790 790 790 790 790 790 791 791 791 791 791 791
761 762 763 764 764 765 766 766 767 768 769 769 770 771 771 772 772 773 774 774 775 776 777 777 779 780 780 781 782 782 783 783 783 783 784 784 784 785 785 786 786 786 786 787 787 787 787 787 787 788 788 788 788 788 788 789 789 789 789 789 790 790 790 790 790 791 791 791 791
761 762 762 763 764 764 765 766 767 767 768 769 770 770 771 771 772 772 773 774 775 776 777 778 778 779 780 781 781 781 782 782 782 782 783 783 784 784 784 785 785 786 786 786 786 786 786 786 787 787 787 788 788 787 787 788 788 789 789 789 789 789 789 790 790 790 790 790 791
761 761 762 762 763 764 765 765 766 767 768 768 769 770 770 771 771 772 773 774 775 776 777 777 778 779 779 780 780 780 781 781 781 781 782 782 783 783 784 784 784 785 785 785 785 785 786 786 786 786 786 787 787 787 787 787 788 788 788 788 788 789 789 789 789 790 790 790 790
760 761 761 762 763 763 764 765 766 766 767 768 769 769 770 771 771 772 773 774 775 776 776 777 778 778 779 779 779 780 780 780 781 781 781 781 782 782 783 783 784 784 784 784 784 785 785 785 786 786 786 786 786 786 786 787 787 787 788 788 788 788 788 789 789 789 790 790 790
760 760 761 761 762 763 764 764 765 766 767 767 768 769 770 770 771 772 773 774 775 775 776 776 777 777 778 778 778 779 779 779 780 780 781 781 781 781 782 782 783 783 783 784 784 784 784 784 785 785 785 786 786 786 786 786 786 787 787 787 788 788 788 788 789 789 789 790 790
759 760 760 761 762 762 763 764 765 766 766 767 768 769 769 770 771 772 772 773 774 775 775 776 776 777 777 777 778 778 778 779 779 779 780 780 780 781 781 781 782 782 782 783 783 783 783 784 784 784 785 785 785 785 785 786 786 786 786 787 787 787 788 788 788 789 789 790 790
758 759 760 761 761 762 763 764 764 765 766 767 767 768 769 770 771 771 772 773 774 774 775 775 776 776 776 777 777 777 778 778 778 779 779 779 779 780 780 780 781 781 782 782 782 782 783 783 783 784 784 785 784 784 785 785 786 786 786 786 787 787 787 788 788 789 789 790 790
757 758 759 760 761 761 762 763 764 765 765 766 767 767 768 769 770 771 772 773 773 774 774 775 775 776 776 776 776 777 777 777 778 778 778 778 778 779 779 780 780 781 781 781 781 782 782 782 783 784 784 784 784 784 784 785 785 786 786 786 786 787 787 788 788 789 789 790 790
756 757 758 759 760 761 761 762 763 764 765 765 766 767 767 769 770 771 771 772 773 773 774 774 774 775 775 776 776 776 776 776 777 777 777 777 778 778 778 779 779 780 781 781 781 781 781 782 782 783 783 783 783 784 784 785 785 785 786 786 786 787 787 788 788 789 789 790 790
755 756 757 758 759 760 760 761 762 763 763 764 765 766 767 768 769 770 771 771 772 772 773 773 774 774 775 775 776 776 776 776 776 776 776 777 777 777 778 778 779 779 780 780 781 781 781 781 782 782 782 782 783 783 784 784 785 785 785 786 786 786 787 788 788 789 790 790 791
754 755 756 757 758 759 759 760 761 762 762 763 764 765 766 767 768 769 770 771 771 771 772 772 773 774 774 775 775 775 775 775 775 776 776 776 776 777 777 778 778 779 779 780 780 781 781 781 782 781 781 782 782 783 784 784 784 785 785 785 786 786 787 788 788 789 790 790 791
754 755 756 756 757 758 759 759 760 761 762 763 764 765 766 767 768 769 769 770 771 771 771 772 773 773 774 774 774 774 774 775 775 775 775 776 776 776 777 777 777 778 779 779 780 780 781 781 781 781 781 782 782 783 783 784 784 784 785 785 786 786 787 787 788 789 789 790 791
753 754 755 756 756 757 758 759 760 761 761 762 763 764 765 766 767 768 769 769 770 770 771 771 772 773 773 773 773 774 774 774 774 774 775 775 776 776 776 777 777 778 778 779 779 780 780 781 781 781 781 781 782 782 783 783 784 784 784 785 785 786 786 787 788 789 789 790 791